#timestamp,LO_Frequency,Hit,StdDev 
1564005615.7,286046999.5,N
1564005635.5,286046998.7,N
1564005655.4,286046996.9,N
1564005675.2,286046997.6,N
1564005695.0,286046996.6,N
1564005695.9,286046996.6,N
1564005715.8,286046999.3,N
1564005735.6,286046998.7,N
1564005755.4,286046997.3,N
1564005775.3,286046997.3,N
1564005795.1,286046999.4,N
1564005815.9,286046999.5,N
1564005835.7,286046996.5,N
1564005855.5,286047000.3,N
1564005875.4,286046999.2,N
1564005895.2,286046999.6,N
1564005915.1,286046997.5,N
1564005916.0,286046997.5,N
1564005935.8,286046996.9,N
1564005955.6,286046996.6,N
1564005975.5,286046997.5,N
1564005995.3,286046995.0,Y
1564006015.2,286046997.5,P
1564006035.9,286046995.4,P
1564006055.7,286046996.2,P
1564006075.6,286046995.4,Y
1564006095.4,286047002.7,P
1564006115.2,286047002.6,N
1564006135.1,286047004.3,N
1564006136.0,286047004.3,N
1564006155.8,286047004.1,N
1564006175.7,286047004.3,N
1564006195.5,286047001.8,N
1564006215.3,286047004.1,N
1564006235.2,286047002.0,N
1564006255.0,286047001.6,N
1564006255.9,286047001.6,N
1564006275.8,286047003.6,N
1564006295.6,286047005.1,N
1564006315.4,286047007.1,Y
1564006335.3,286047003.3,P
1564006355.1,286046999.8,N
1564006375.9,286047002.4,N
1564006395.7,286047004.4,Y
1564006415.5,286047000.4,P
1564006435.4,286047002.7,P
1564006455.2,286047002.6,N
1564006475.1,286046999.4,N
1564006476.0,286046999.4,N
1564006495.8,286046998.8,N
1564006515.6,286046998.1,N
1564006535.5,286046998.6,N
1564006555.3,286046998.5,N
1564006575.1,286046998.7,N
1564006595.9,286046999.1,N
1564006615.7,286046996.6,N
1564006635.6,286046999.4,N
1564006655.4,286046998.2,N
1564006675.2,286046998.7,N
1564006695.1,286047001.0,N
1564006696.0,286047001.0,N
1564006715.8,286046999.9,N
1564006735.7,286047002.4,N
1564006755.5,286046999.7,N
1564006775.3,286046998.7,N
1564006795.2,286047000.0,N
1564006815.0,286047000.4,N
1564006815.9,286047000.4,N
1564006835.8,286047000.2,N
1564006855.6,286046999.1,N
1564006875.4,286046998.1,N
1564006895.3,286047000.9,N
1564006915.1,286047000.1,N
1564006935.8,286046998.1,N
1564006955.7,286046998.9,N
1564006975.5,286046998.3,N
1564006995.4,286046999.0,N
1564007015.2,286047001.1,N
1564007035.0,286047002.1,N
1564007035.9,286047002.1,N
1564007055.8,286047001.8,N
1564007075.6,286047002.0,N
1564007095.5,286047001.5,N
1564007115.3,286047001.0,N
1564007135.1,286046999.3,N
1564007155.9,286046999.0,N
1564007175.7,286046999.0,N
1564007195.6,286046998.7,N
1564007215.4,286046998.6,N
1564007235.2,286047001.2,N
1564007255.1,286047000.4,N
1564007256.0,286047000.4,N
1564007275.8,286047001.8,N
1564007295.6,286047002.7,N
1564007315.5,286047000.0,N
1564007335.3,286047001.0,N
1564007355.2,286047002.7,N
1564007375.9,286047001.7,N
1564007395.7,286046999.7,N
1564007415.6,286047001.7,N
1564007435.4,286047001.5,N
1564007455.3,286047002.6,N
1564007475.1,286047001.7,N
1564007476.0,286047001.7,N
1564007495.8,286047002.2,N
1564007515.7,286047002.7,N
1564007535.5,286046999.9,N
1564007555.3,286047000.0,N
1564007575.2,286047000.6,N
1564007595.0,286047000.8,N
1564007595.9,286047000.8,N
1564007615.8,286046999.7,N
1564007635.6,286047000.5,N
1564007655.4,286047000.6,N
1564007675.3,286046999.8,N
1564007695.1,286046998.5,N
1564007715.9,286047000.0,N
1564007735.7,286046999.8,N
1564007755.5,286047001.6,N
1564007775.4,286047006.0,Y
1564007795.2,286047005.5,P
1564007815.1,286047003.3,N
1564007816.0,286047003.3,N
1564007835.8,286047004.0,N
1564007855.6,286047003.6,N
1564007875.5,286047003.3,N
1564007895.3,286047005.4,Y
1564007915.2,286047000.1,P
1564007935.9,286047000.0,N
1564007955.7,286046999.8,N
1564007975.6,286047002.6,N
1564007995.4,286047000.3,N
1564008015.3,286047000.7,N
1564008035.1,286047000.1,N
1564008036.0,286047000.1,N
1564008055.8,286047000.9,N
1564008075.7,286046999.9,N
1564008095.5,286047000.4,N
1564008115.3,286047000.9,N
1564008135.2,286047001.0,N
1564008155.0,286047000.3,N
1564008155.9,286047000.3,N
1564008175.8,286046999.7,N
1564008195.6,286047001.0,N
1564008215.4,286047000.6,N
1564008235.3,286046998.6,N
1564008255.1,286046998.5,N
1564008275.9,286046998.3,N
1564008295.7,286046998.1,N
1564008315.5,286046998.9,N
1564008335.4,286046998.9,N
1564008355.2,286046999.5,N
1564008375.0,286046996.5,N
1564008376.0,286046996.5,N
1564008395.8,286046996.7,N
1564008415.6,286046996.7,N
1564008435.5,286046996.5,N
1564008455.3,286046997.9,N
1564008475.1,286046995.3,N
1564008495.9,286046995.0,N
1564008515.7,286046995.3,N
1564008535.6,286046997.6,N
1564008555.4,286046995.3,N
1564008575.2,286046996.7,N
1564008595.1,286046999.6,N
1564008596.0,286046999.6,N
1564008615.8,286046999.0,N
1564008635.7,286046996.6,N
1564008655.5,286046996.9,N
1564008675.1,286046999.4,N
1564008695.9,286046996.6,N
1564008715.7,286046996.7,N
1564008735.5,286046997.4,N
1564008755.4,286046997.5,N
1564008775.2,286046997.0,N
1564008795.0,286046998.0,N
1564008796.0,286046998.0,N
1564008815.8,286046996.6,N
1564008835.6,286046997.0,N
1564008855.5,286046997.2,N
1564008875.3,286046997.9,N
1564008895.1,286046995.6,Y
1564008915.9,286046997.9,P
1564008935.7,286046996.8,P
1564008955.6,286046995.2,P
1564008975.4,286046998.0,N
1564008995.2,286046997.8,N
1564009015.1,286046995.1,Y
1564009016.0,286046995.1,P
1564009035.8,286046998.4,N
1564009055.7,286046997.2,N
1564009075.5,286046997.8,N
1564009095.3,286046997.2,N
1564009115.2,286046997.3,N
1564009135.0,286046998.8,N
1564009135.9,286046998.8,N
1564009155.8,286046999.3,N
1564009175.6,286046998.1,N
1564009195.4,286046998.2,N
